The Dalles, WA

10:31 AM PST on December 09, 2019 (GMT -0800)
Columbia Gorge Regional-The Dalles

Weather History for KDLS - July, 2019

Change the Weather History Date:

Tuesday, July 23, 2019

  Actual Average Record
Temperature  
Mean Temperature 78 °F -  
Max Temperature 88 °F 89 °F 108 °F (2006)
Min Temperature 66 °F 60 °F 45 °F (1964)
Cooling Degree Days 12    
Growing Degree Days 28 (Base 50)    
Moisture  
Dew Point 53 °F    
Average Humidity 48    
Maximum Humidity 59    
Minimum Humidity 28    
Precipitation  
Precipitation 0.00 in - - ()
Sea Level Pressure  
Sea Level Pressure 29.96 in    
Wind  
Wind Speed 11 mph (WNW)    
Max Wind Speed 29 mph    
Max Gust Speed 43 mph    
Visibility 10 miles    
Events Thunderstorm    
Averages and records for this station are not official NWS values.
T = Trace of Precipitation, MM = Missing Value Source: NWS Daily Summary

Daily Weather History Graph

Daily Weather History Graph

Search for Another Location

Airport or City:

Astronomy

Jul. 23, 2019 Rise Set
Actual Time 5:38 AM PDT 8:43 PM PDT
Civil Twilight 5:02 AM PDT 9:19 PM PDT
Nautical Twilight 4:16 AM PDT 10:04 PM PDT
Astronomical Twilight 3:20 AM PDT 10:59 PM PDT
Moon No Moon Rise 12:14 PM PDT (7/23)
Length of Visible Light 16h 16m
Length of Day
15h 05m
Waning Gibbous, 62% of the Moon is Illuminated
Jul 23
Waning Gibbous
Jul 24
Last Quarter
Jul 31
New
Aug 7
First Quarter
Aug 15
Full

Hourly Weather History & Observations

Time (PDT) Temp. Heat Index Dew Point Humidity Pressure Visibility Wind Dir Wind Speed Gust Speed Precip Events Conditions
12:53 AM 72.0 °F - 51.1 °F 48% 29.96 in 10.0 mi NW 4.6 mph - N/A   Clear
1:53 AM 71.1 °F - 52.0 °F 51% 29.95 in 10.0 mi West 6.9 mph - N/A   Clear
2:53 AM 72.0 °F - 52.0 °F 49% 29.95 in 10.0 mi Calm Calm - N/A   Mostly Cloudy
3:15 AM 72.0 °F - 52.0 °F 49% 29.95 in 10.0 mi Calm Calm - N/A Thunderstorm Overcast
3:30 AM 71.1 °F - 53.1 °F 53% 29.95 in 10.0 mi ENE 3.5 mph - N/A   Mostly Cloudy
3:53 AM 70.0 °F - 52.0 °F 53% 29.95 in 10.0 mi WNW 6.9 mph - N/A   Partly Cloudy
4:10 AM 70.0 °F - 53.1 °F 55% 29.96 in 10.0 mi NW 3.5 mph 16.1 mph N/A Thunderstorm Clear
4:25 AM 69.1 °F - 53.1 °F 57% 29.96 in 10.0 mi Calm Calm - N/A   Clear
4:53 AM 68.0 °F - 53.1 °F 59% 29.96 in 10.0 mi WSW 4.6 mph - N/A   Clear
5:53 AM 68.0 °F - 53.1 °F 59% 29.97 in 10.0 mi WNW 6.9 mph - N/A   Clear
6:53 AM 69.1 °F - 54.0 °F 58% 29.98 in 10.0 mi NW 10.4 mph - N/A   Clear
7:53 AM 71.1 °F - 54.0 °F 55% 29.97 in 10.0 mi NW 9.2 mph - N/A   Clear
8:53 AM 72.0 °F - 55.0 °F 55% 29.97 in 10.0 mi NW 15.0 mph 21.9 mph N/A   Clear
9:53 AM 75.9 °F - 55.9 °F 50% 29.96 in 10.0 mi NW 13.8 mph - N/A   Clear
10:53 AM 79.0 °F - 55.9 °F 45% 29.95 in 10.0 mi NW 17.3 mph 23.0 mph N/A   Clear
11:53 AM 84.0 °F 82.9 °F 55.0 °F 37% 29.94 in 10.0 mi NW 16.1 mph 26.5 mph N/A   Clear
12:53 PM 86.0 °F - 50.0 °F 29% 29.91 in 10.0 mi NW 18.4 mph 27.6 mph N/A   Clear
1:53 PM 87.1 °F - 50.0 °F 28% 29.90 in 10.0 mi WNW 20.7 mph 33.4 mph N/A   Clear
2:53 PM 84.0 °F - 51.1 °F 32% 29.89 in 10.0 mi NW 28.8 mph 39.1 mph N/A   Clear
3:53 PM 82.0 °F 81.2 °F 53.1 °F 37% 29.89 in 10.0 mi NW 25.3 mph 34.5 mph N/A   Clear
4:53 PM 81.0 °F 80.4 °F 53.1 °F 38% 29.91 in 10.0 mi NW 19.6 mph 35.7 mph N/A   Clear
5:24 PM 79.0 °F - 53.1 °F 40% 29.93 in 10.0 mi West 26.5 mph 42.6 mph N/A Thunderstorm Partly Cloudy
5:33 PM 77.0 °F - 53.1 °F 43% 29.93 in 10.0 mi WNW 24.2 mph 38.0 mph N/A Thunderstorm Thunderstorm
5:48 PM 75.2 °F - 53.6 °F 47% 29.93 in 10.0 mi WNW 24.2 mph 34.5 mph N/A   Partly Cloudy
5:53 PM 75.9 °F - 53.1 °F 45% 29.93 in 10.0 mi WNW 24.2 mph 36.8 mph N/A   Partly Cloudy
6:21 PM 73.0 °F - 53.1 °F 49% 29.93 in 10.0 mi WNW 25.3 mph 35.7 mph N/A Thunderstorm Partly Cloudy
6:53 PM 73.9 °F - 54.0 °F 50% 29.97 in 10.0 mi WNW 20.7 mph 28.8 mph N/A Thunderstorm Partly Cloudy
8:41 PM 72.0 °F - 53.1 °F 51% 29.98 in - WNW 25.3 mph 35.7 mph N/A   Unknown
8:53 PM 71.1 °F - 53.1 °F 53% 29.99 in 10.0 mi WNW 23.0 mph 33.4 mph N/A   Unknown
9:53 PM 70.0 °F - 52.0 °F 53% 30.03 in 10.0 mi WNW 18.4 mph 27.6 mph N/A   Scattered Clouds
10:53 PM 69.1 °F - 50.0 °F 51% 30.05 in 10.0 mi WNW 21.9 mph 25.3 mph N/A   Partly Cloudy
11:53 PM 66.9 °F - 48.9 °F 52% 30.09 in 10.0 mi WNW 19.6 mph 27.6 mph N/A   Mostly Cloudy